Location: Sevilla
(37.3933°N, 5.9839°W)
Time: 03:52:08
(UTC+02:00)

Tiros 1 despin weight - Pass Details

Date: 30 June 2024
Orbit: 576 x 620 km, 48.2° (Epoch: 22 July)

Event Time Altitude Azimuth Distance (km) Brightness Sun altitude
Rises 14:35:52 0° 298° (WNW) 2,888 ? 75.6°
Reaches altitude 10° 14:38:39 10° 315° (NW) 1,986 ? 75.5°
Maximum altitude 14:42:09 21° 5° (N) 1,397 ? 75.4°
Drops below altitude 10° 14:45:39 10° 55° (NE) 1,987 ? 75.2°
Sets 14:48:27 0° 71° (ENE) 2,891 ? 75.1°
